Change the Weather History Date:

Friday, November 30, 2012

  Actual Average (KPMD) Record (KPMD)
Temperature  
Mean Temperature 54 °F 47 °F  
Max Temperature 66 °F 61 °F 77 °F (1995)
Min Temperature 42 °F 32 °F 18 °F (1975)
Degree Days  
Heating Degree Days 11 18  
Month to date heating degree days 400  
Since 1 July heating degree days 527  
Cooling Degree Days 0 0  
Month to date cooling degree days 1  
Year to date cooling degree days 1815  
Growing Degree Days 4 (Base 50)    
Moisture  
Dew Point 41 °F    
Average Humidity 69    
Maximum Humidity 91    
Minimum Humidity 34    
Precipitation  
Precipitation 0.00 in 0.02 in 0.73 in (2007)
Month to date precipitation 0.70  
Year to date precipitation 7.15  
Since 1 July precipitation 1.83  
Snow  
Snow - - 0.00 in (1973)
Month to date snowfall  
Since 1 July snowfall  
Since 1 September snowfall  
Snow Depth -    
Sea Level Pressure  
Sea Level Pressure 30.11 in    
Wind  
Wind Speed 5 mph ()    
Max Wind Speed 16 mph    
Max Gust Speed 31 mph    
Visibility 9.9 miles    
Events      
T = Trace of Precipitation, MM = Missing Value Source: Averaged Metar Reports

Daily Weather History Graph

Daily Weather History Graph

Search for Another Location

Airport or City:

Trip Planner

Search our weather history database for the weather conditions in past years. The results will help you decide how hot, cold, wet, or windy it might be!

Date:

Astronomy

Nov. 30, 2012 Rise Set
Actual Time 6:38 AM PST 4:40 PM PST
Civil Twilight 6:11 AM PST 5:07 PM PST
Nautical Twilight 5:40 AM PST 5:38 PM PST
Astronomical Twilight 5:09 AM PST 6:09 PM PST
Moon 6:38 PM PST (11/30) 8:14 AM PST (11/30)
Length of Visible Light 10h 56m
Length of Day
10h 01m
Waning Gibbous, 96% of the Moon is Illuminated
Nov 30
Waning Gibbous
Dec 6
Last Quarter
Dec 13
New
Dec 19
First Quarter
Dec 28
Full

Hourly Weather History & Observations

Time (PST) Temp. Windchill Dew Point Humidity Pressure Visibility Wind Dir Wind Speed Gust Speed Precip Events Conditions
12:55 AM 47.3 °F - 41.7 °F 81% 30.10 in 10.0 mi SE 6.9 mph - N/A   Clear
1:55 AM 45.7 °F 43.4 °F 39.4 °F 79% 30.11 in 10.0 mi South 4.6 mph - N/A   Clear
2:55 AM 45.5 °F 44.2 °F 40.3 °F 82% 30.12 in 10.0 mi SE 3.5 mph - N/A   Mostly Cloudy
3:55 AM 44.2 °F 41.8 °F 40.1 °F 85% 30.11 in 10.0 mi SSE 4.6 mph - N/A   Scattered Clouds
4:55 AM 43.7 °F 41.1 °F 40.1 °F 87% 30.10 in 10.0 mi SSE 4.6 mph - N/A   Clear
5:55 AM 42.3 °F - 39.2 °F 89% 30.13 in 10.0 mi South 2.3 mph - N/A   Clear
6:55 AM 43.5 °F 41.9 °F 41.0 °F 91% 30.14 in 10.0 mi South 3.5 mph - N/A   Partly Cloudy
7:55 AM 48.4 °F - 45.5 °F 90% 30.14 in 10.0 mi SSE 3.5 mph - N/A   Clear
8:55 AM 55.0 °F - 48.6 °F 79% 30.14 in 10.0 mi West 1.2 mph - N/A   Clear
9:55 AM 61.7 °F - 48.9 °F 63% 30.12 in 10.0 mi ENE 3.5 mph - N/A   Partly Cloudy
10:55 AM 61.2 °F - 48.4 °F 63% 30.10 in 10.0 mi NNW 2.3 mph - N/A   Partly Cloudy
11:55 AM 61.7 °F - 47.8 °F 60% 30.09 in 10.0 mi ENE 3.5 mph - N/A   Partly Cloudy
12:55 PM 61.9 °F - 47.7 °F 60% 30.07 in 10.0 mi ENE 9.2 mph - N/A   Clear
1:55 PM 66.4 °F - 37.4 °F 34% 30.06 in 10.0 mi WSW 16.1 mph 20.7 mph N/A   Partly Cloudy
2:55 PM 65.5 °F - 37.4 °F 35% 30.07 in 10.0 mi SW 9.2 mph 19.6 mph N/A   Scattered Clouds
3:55 PM 63.1 °F - 36.0 °F 36% 30.11 in 7.0 mi West 16.1 mph 31.1 mph N/A   Mostly Cloudy
5:55 PM 56.8 °F - 29.3 °F 35% 30.09 in 10.0 mi WNW 6.9 mph - N/A   Partly Cloudy
6:55 PM 54.3 °F - 37.8 °F 54% 30.12 in 10.0 mi WNW 4.6 mph - N/A   Clear
7:55 PM 51.3 °F - 42.4 °F 72% 30.13 in 10.0 mi SW 5.8 mph - N/A   Clear
8:55 PM 49.3 °F - 42.1 °F 76% 30.11 in 10.0 mi SSW 5.8 mph - N/A   Clear
9:55 PM 45.5 °F 42.5 °F 38.7 °F 77% 30.12 in 10.0 mi SE 5.8 mph - N/A   Clear
10:55 PM 46.6 °F - 40.5 °F 79% 30.12 in 10.0 mi East 4.6 mph - N/A   Clear
11:55 PM 45.9 °F 44.6 °F 41.9 °F 86% 30.13 in 10.0 mi East 3.5 mph - N/A   Clear